timestamp,gas_concentrations,,corrected_fluxes_and_quality_flags,,,,,,,,,,storage_terms,,,turbulence,,,footprint,,
ISOdate,CO2_1_1_1,H2O_1_1_1,Tau_1_1_1,QcTau_1_1_1,H_1_1_1,QcH_1_1_1,LE_1_1_1, QcLE_1_1_1,Fc_1_1_1, QcFc_1_1_1,E_1_1_1, QcE_1_1_1,Sa_1_1_1,Sw_1_1_1,Sc_1_1_1,ustar_1_1_1,MO_length_1_1_1,ZL_1_1_1,Fetchmax_1_1_1,Fetch70_1_1_1,Fetch90_1_1_1
yyyymmddHHMM,[µmol+1mol_a-1],[mmol+1mol_a-1],[kg+1m-1s-2],[#],[W+1m-2],[#],[W+1m-2],[#],[µmol+1s-1m-2],[#],[mmol+1s-1m-2],[#],[W+1m-2],[W+1m-2],[µmol+1s-1m-2],[m+1s-1],[m],[#],[m],[m],[m]
201306020030,529.77372997876262,7.9237459484450961,4.3441217334422904,0,-68.467599980642973,1,-1017.9505462988028,1,-154.99024652254681,1,-22.656038004722848,1,-9999.,-9999.,-9999.,1.9127173757228979,8547.7242347874508,2.52698840143818822E-003,165.33448183045741,302.28416351451045,452.87676033130782
201306020100,500.26198455372162,7.8696781116353050,2.3645753171918962,0,-84.152807820324625,1,-9999.,-9999.,128.77879022645666,0,-9999.,-9999.,-2.2152464718274230,555.19169725219308,-23.606326542983961,1.4108177982939567,2791.0031650840137,7.73915281437877016E-003,142.12883583794653,259.85684157900982,389.31290080162853
201306020130,502.90657684548910,7.7866506587392230,4.0470797308924684,0,45.997105096085825,0,-9999.,-9999.,116.01318361363555,1,-9999.,-9999.,-3.4530913625708455,853.18191232341894,2.1166405565536510,1.8451469558465878,-11423.183865411038,-1.89089138846867131E-003,160.51627492381030,293.47494460088302,439.67894514883511
201306020200,528.77365661111867,7.7290284535552018,5.3274173328304988,0,380.28238919046981,0,-1778.3505176987667,1,-184.26095013203124,1,-39.567472451169763,1,-2.0385207822121929,-2.0737232852680658,20.712345169301237,2.1164935616001275,-2085.4732319476398,-1.03573614223892926E-002,171.56611339193572,313.67757348584217,469.94616461948669
201306020230,512.33442270025353,7.5330707209502830,3.7161953475982550,0,147.56018849257578,1,-9999.,-9999.,297.98817950948359,1,-9999.,-9999.,-6.7697029086902569,2017.8245392561530,-13.180001684351813,1.7665084287948694,-3125.2878458626546,-6.91136338964575686E-003,148.00713472251459,270.60424672727214,405.41447214735797
201306020300,519.13982630190696,7.4399598285116557,3.0886893417905990,0,-148.18017637146335,0,502.96249137541059,2,-8.6315723729390470,2,11.186011910112404,2,-3.5005669394999575,-3.3592674891550631,5.4605660303201873,1.6097963976425176,2355.6371752039890,9.16949359917005290E-003,143.14778518147000,261.71980595619584,392.10396091520977
201306020330,524.16671718905957,7.4798919789933676,3.8959169847035557,0,174.58819907835147,2,-2135.1104154421682,1,-151.47558538849017,1,-47.489059589625974,1,1.9022513235586473,1.4405086335525443,4.0333494914411663,1.8080093059930469,-2833.0573463700825,-7.62427207048084650E-003,157.88675986821525,288.66735243844198,432.47629603150557
201306020400,512.25552767342515,7.5463216291507820,5.2540462612348531,0,1228.0853487676147,0,-385.03198726049936,1,51.347146663770175,1,-8.5648051130249243,1,2.6889838181395862,2.3954834616975935,-9.5544792297150867,2.0999332301011697,-631.11637301133214,-3.42250667605673992E-002,164.09071378721646,300.01015885199422,449.46988696895522
201306020430,508.27355726036814,7.4692711524051330,4.9355158527409309,0,100.59549165591059,1,-9999.,-9999.,-88.454740571961466,2,-9999.,-9999.,-2.1756055577593214,794.23032792335653,-3.1956775187699331,2.0347542043018856,-7010.0336115799328,-3.08129763662171041E-003,167.57106446485983,306.37334989164327,459.00310667157163
201306020500,508.90112423955236,7.4373884478449153,6.5102069538010578,1,226.85954832804040,1,-209.91770244891472,2,-62.710520791177359,1,-4.6689711955627811,2,-0.57747364838228310,-1.1512639094205839,0.50402485103337991,2.3360222628750296,-4705.8689682562135,-4.59001305512422766E-003,188.22238716729282,344.13055419325190,515.57027897882688
201306020530,504.60038357724136,7.4853902681425728,2.5278894857481946,0,143.05265900649889,1,-9999.,-9999.,-92.376736253197393,1,-9999.,-9999.,2.1151150598111963,-495.20942593782087,-3.4545805559795513,1.4555679110564588,-1805.9936083213329,-1.19601752190458491E-002,147.24692370450231,269.21433852947700,403.33213639262647
201306020600,518.09223224536379,7.4837118378616143,2.0800007171976191,0,254.82707613566438,0,-9999.,-9999.,64.741301210771383,0,-9999.,-9999.,0.66357925113161342,17.319363229009348,10.840083777742949,1.3201718892952592,-756.60717976891124,-2.85484999053237098E-002,128.25527486548745,234.49154737602652,351.31106792378353
201306020630,455.46053634836147,7.4783825870492144,2.2375354109728818,0,-22.175622170216414,2,-9999.,-9999.,-117.63442926449966,1,-9999.,-9999.,2.4044937952540648,54.985888479136165,-50.321569906595030,1.3692534441218058,9703.2063755597028,2.22606828753078682E-003,138.61868515703392,253.43916662916104,379.69805427326452
201306020700,478.55236531729190,7.5274878297532695,6.0768055293103682,1,224.97010000136115,1,-9999.,-9999.,99.597856965829379,1,-9999.,-9999.,5.0724108506221990,-506.34527311145797,18.545628847830766,2.2569866237778289,-4284.7366457695962,-5.04114996690079031E-003,199.26894675441335,364.32718823798865,545.82851708642238
201306020830,437.20691518956329,7.6188377696610674,3.4062945089542200,0,-62.135591198850783,0,-9999.,-9999.,48.164367971447682,1,-9999.,-9999.,-9999.,-9999.,-9999.,1.6915767238442907,6535.8044747115910,3.30487242749916534E-003,165.96450730570959,303.43605101959082,454.60249771530368
201306020900,426.47089025417807,7.4450108714833361,1.2394583689582730,0,32.501220892327389,1,-9999.,-9999.,-27.090820077854996,1,-9999.,-9999.,1.8609260837228567,1786.8552581228705,-8.6031442100852242,1.0204348143110411,-2743.1562565791455,-7.87414131010396451E-003,123.57536924988970,225.93518733137174,338.49208140395058
201306020930,391.97397957091772,7.3361626604529846,0.85227104053893610,0,85.835241862692072,0,-108.15140411670926,2,14.158406422804269,2,-2.4093870960296155,2,8.1669759640851218,-3.9111725658019560,-27.614698409059514,0.84659557430387300,-593.22478503544357,-3.64111556780444684E-002,116.75228771064408,213.46041816738591,319.80260399573166
201306021000,383.45321826186523,7.2530038030478368,0.80836471427371925,0,79.806129542990419,0,117.19766142816877,0,-6.3520449981244109,0,2.6120636383112692,0,10.732546899299860,-2.9821507306157624,-6.8102692834963134,0.82512750175668681,-590.76495017138268,-3.65627649266155319E-002,111.12759723592971,203.17669007658998,304.39570537510917
201306021030,383.59464296508946,7.1499599293714358,0.76121072441393334,0,125.91011589485920,0,127.44675550582971,0,-9.0230280308929203,0,2.8423805884612716,0,16.224562306170640,-3.6843335005592635,0.11277568644767680,0.80160274282287269,-343.37615345939224,-6.29047759501867171E-002,111.88211500933343,204.55618920747335,306.46244645082658
201306021100,383.91485243603131,7.1103758268422066,0.80491067955885254,0,175.31893967446584,0,141.58699917442695,0,-10.137476063111633,0,3.1588826216033015,0,8.7909880725008680,-1.4130716817321924,0.25502788816474203,0.82479435899386366,-268.65798458338486,-8.03996204821371685E-002,109.25024810503180,199.74429711551301,299.25335525552737
201306021130,383.68137732015560,6.9927249361493784,1.0823512233952564,0,290.69722974533869,0,146.98826310579531,0,-10.912972710090608,0,3.2818716648873929,0,18.386343014997497,-4.1843173333164474,-0.18539965851098303,0.95783089883130079,-253.73460579803520,-8.51283171724432630E-002,122.86910986476322,224.64391992548263,336.55752753019993
201306021200,383.66708704922775,6.8937445130384516,0.92113692473045738,0,258.13515765378025,0,164.87430965097693,0,-11.133629682631506,0,3.6837339901508113,0,16.513707138539313,-3.5085511627988457,-1.13175974287896726E-002,0.88478134952612619,-225.20684072621103,-9.59118290117110667E-002,120.48458838399358,220.28425415451551,330.02595377017360
201306021230,383.49773303253562,6.8202857846567611,0.86956927119185989,0,324.20998447553188,0,184.45986688794375,0,-12.183878070673625,0,4.1234630098926681,0,12.504504861618367,-2.5977384510148251,-0.13387754205379351,0.86044018234504382,-164.92377851385723,-0.13096959210272474,126.64567459717246,231.54868472987098,346.90212342005685
201306021300,383.07187598820536,6.8363817997009662,1.0237173698193986,0,434.63661801383489,0,230.82284833894346,0,-14.746458936004984,0,5.1632495269598495,0,15.745337595039286,0.56742434302940659,-0.33581318807596888,0.93475782821988140,-157.72885008672677,-0.13694387544271897,121.44907865897341,222.04764998557468,332.66784205789224
201306021330,382.69718575779666,6.8693284832574975,1.1180587955117804,0,375.32896955133862,1,174.99072146398245,0,-10.629039589893850,1,3.9162552005311464,0,11.700398387901895,1.1586503724518560,-0.29489610294191659,0.97782859306129688,-209.06746720159774,-0.10331593092468923,131.98338738048002,241.30772607393502,361.52294568363152
201306021400,382.18560922066359,6.9378499931650692,0.82014063213567878,0,289.24534312253172,0,127.51173817998280,0,-8.3544888304845681,0,2.8557363697023721,0,17.189699821714871,2.4013195106129310,-0.40151482919993486,0.83865446314672198,-171.14681090371485,-0.12620743492644981,113.89756892329488,208.24108175825191,311.98308696723080
201306021430,381.58925953426098,6.8679554907278799,0.89867546375626073,0,354.67579775307217,0,244.33365485171811,0,-14.261795733642263,0,5.4744787567814663,0,10.529981269343434,-2.4443690745357638,-0.46728758375768426,0.87859443713916008,-160.47920306279613,-0.13459687976857562,123.08372248767274,225.03630024734667,337.14538475340845
201306021500,382.83767326639094,6.5881329061133105,0.82096651898374695,0,259.02193187501007,0,130.38515631884141,0,-7.8472568912155936,0,2.9224100143431833,0,8.4245688753872301,-9.7695002695466417,0.97692476266082839,0.84026645848755266,-192.20845799459158,-0.11237798911329797,119.46821684364610,218.42600282368335,327.24195465885987
201306021530,381.82769181627765,6.4080417072414422,0.78506578057130083,0,222.80768863150766,0,172.34047870630960,1,-6.1717402675239761,0,3.8646546897819127,1,11.521278526534671,-6.2733735516521794,-0.78894269128441208,0.82238989552329089,-209.48629620333648,-0.10310936987989947,118.16213825824138,216.03807461716357,323.66440306800217
201306021600,382.59157502930134,6.0903543656814509,0.97623738257454074,0,221.77588415720180,0,153.36938438361977,0,-8.9551312302578605,0,3.4391928500420419,0,-0.30359255842092531,-11.067228490518170,0.59673812713658136,0.91698858871317046,-291.74978832636708,-7.40360434326590572E-002,126.59253239247661,231.45152383085011,346.75655868828966
201306021630,383.76062747892615,6.1170122467575991,0.93049033477846221,0,196.22684517554345,0,150.10793140221671,0,-8.4972436779639651,0,3.3667848436631900,0,5.1344100987287895,0.92776433317655860,0.91255230403290977,0.89559336394992350,-307.19891055818852,-7.03127493543262705E-002,119.82378888717932,219.07610192314888,328.21592157342542
201306021700,382.84896557724579,6.2083360475353686,0.87424422231159571,0,125.48378831849446,0,94.944064136684204,0,-5.2628053640397043,0,2.1295072615448896,0,-2.27577046430787293E-002,3.1790351153043339,-0.71179750357224614,0.86801932250200609,-437.44352576761048,-4.93778024536929289E-002,120.44889978781319,220.21900401840378,329.92819717614668
201306021730,383.90717346907053,6.5248478747372269,0.68459917461949615,0,97.801474147701569,0,67.976632698703128,0,-3.8930466709725495,0,1.5249215664008542,0,4.1850272731598785,11.009125404509826,0.82569894708177938,0.76841034728796564,-389.39125961099154,-5.54711988696889799E-002,122.53470264797524,224.03251687948267,335.64153435506995
201306021800,383.90198374138714,6.6144121677647005,0.42917920751405270,0,44.701399230550102,0,64.345824594952333,0,-3.8408819011420809,0,1.4434812344857268,0,0.15922388256763681,3.1154312020283368,-4.04966039409378111E-003,0.60840122244170303,-422.89424496127936,-5.10765995455381983E-002,115.44930354260670,211.07814754272744,316.23352849344860
201306021830,383.95745188434159,6.7578142629267450,0.42574754775114260,0,22.786089529589226,0,72.865342656080827,0,-3.8967099537581200,0,1.6343521220269714,0,-3.6190492546523418,4.9921003125033945,4.33107847547915675E-002,0.60578627198691004,-819.04024538900683,-2.63723304460344136E-002,125.49924892325940,229.45265296424250,343.76188588814995
201306021900,384.05866216133330,6.7975759316145705,0.20292031705626853,0,-9.4764500121970912,0,54.645485306060472,0,-1.8552914106757632,0,1.2253662189408507,0,-6.1899548880868753,1.3859853801711886,7.91097981845167580E-002,0.41800624565991001,647.06349870157260,3.33815769910426954E-002,133.03105522636523,243.22319703273484,364.39267022442220
201306021930,383.98864369868375,6.8729251827018407,1.06621085018673289E-002,1,-0.10046990058469840,2,3.3032731739127281,2,-0.30440519050850195,1,7.40352186217902858E-002,2,-11.953929763703004,2.6326576475615404,-5.48304601336117303E-002,9.57295303845456247E-002,733.07479058841852,2.94649335610931151E-002,410.02985068138281,2676.0000000000000,-9999.
201306022000,383.75342672233404,6.7191079521613917,1.07299052986496246E-003,2,-0.75993120103377343,0,-1.4388181958611028,2,5.22060779813260240E-002,1,-3.22345413294144179E-002,2,-9.8067638689048078,-5.3842579002336715,-0.18446123106520307,3.03456260293424214E-002,3.0869097682652940,6.9972890759739448,7779.1215644489539,-9999.,-9999.
201306022030,383.98022025422699,6.5973344328108796,1.19941454858198213E-003,1,0.36628310641309580,2,0.32731610518522580,2,-2.48745245099460457E-002,2,7.33111108402040301E-003,2,-6.2318121555098465,-4.2681813470894081,0.17804225886747121,3.20660003797570009E-002,-7.5568963524007913,-2.8583162971578644,634.86397880965433,1783.0000000000000,3745.0000000000000
201306022100,383.94014676059601,6.3062550057058848,5.36511626796109219E-003,1,-5.8832256504083666,1,9.0654623933983949,1,0.11923150187111564,1,0.20304840706798910,1,0.39669979530023541,-10.204251140395476,-3.14656320190437599E-002,6.78082187782680229E-002,4.4495695320872706,4.8544021717686361,1303.6630316900985,-9999.,-9999.
201306022130,383.95609024131085,6.2628395785833693,3.05987764499126777E-003,1,-2.3373703063949001,1,1.9476343255182602,1,1.60949290107425258E-002,1,4.36191468352860809E-002,1,-2.1979525859300741,-1.5227360734450452,1.25237227830702937E-002,5.11983185808575006E-002,4.8210208394381233,4.4803788905665511,1588.0425254804086,-9999.,-9999.
201306022200,383.64229551633565,6.3743466229578303,5.11330551220795949E-003,1,-1.3729083005145202,1,-7.44522103149167225E-002,1,-4.06688817216879772E-002,1,-1.66695968243555856E-003,1,-6.7466731252561969,3.9165414356418831,-0.24677068136957023,6.61477244285314375E-002,17.702730656063743,1.2201507450830091,521.52929778947157,5237.0000000000000,-9999.
201306022230,382.97270611095723,6.3875775850819219,2.32073899789714128E-002,1,-7.5962524603908124,2,3.9597443472592486,1,8.84728187480414707E-002,1,8.86289114002079131E-002,1,-7.6961652649752317,0.46545774329875889,-0.52723675001952031,0.14083275884280694,30.879516886320779,0.69949280876115383,2.0491784207965709,13.000000000000000,45.000000000000000
201306022300,383.18617428997425,6.3177489479020776,2.08674128598800241E-003,1,1.2233315142198846,1,-0.15938592648197378,2,-1.82881734937716117E-002,1,-3.56797692341191339E-003,2,3.5250282272878168,-2.4549779437379455,0.16800385202521326,4.22400668810934063E-002,-5.1737214557301154,-4.1749445123446076,231.04128815690905,652.00000000000000,1374.0000000000000
201306022330,383.58735307256791,6.3116283958212893,2.38337035902868536E-003,0,0.10376816441072276,2,-0.51934978755718597,1,-1.66794987889382490E-002,1,-1.16272350701438903E-002,1,2.4535698708996816,-0.21507577569291128,0.31561333965598881,4.51512632708634815E-002,-74.493190196344216,-0.28995939015456518,657.88507970871967,2119.0000000000000,4872.0000000000000
201306030000,387.96079687368552,7.1420411403240305,1.41696594079238122E-002,1,2.3779883341716666,2,-16.013250180980766,2,-1.3860030844927609,2,-0.35829277826957728,2,-14.280547930802806,29.262011190321122,3.4481986881541360,0.10998831142324482,-46.994910980846150,-0.45962423481988451,307.63895444868126,967.00000000000000,2187.0000000000000
